Preview of NWS' New Version of Forecast
This preview is not operational and should not be used for support decisions.

Regional Weather Roundup (RWR)

Issued by Gray - Portland, ME (GYX)

                            
000
ASUS41 KGYX 211310
RWRGYX
WEATHER ROUNDUP FOR MAINE AND NEW HAMPSHIRE
NATIONAL WEATHER SERVICE GRAY ME
900 AM EDT WED AUG 21 2019

MEZ002-005-006-010-012-015-018-020-021-024-026-027-029-211400-
MAINE
  
CITY           SKY/WX    TMP DP  RH WIND       PRES   REMARKS
PORTLAND       CLOUDY    70  61  73 SW5       29.98F                  
SANFORD        PTSUNNY   70  64  81 SW7       29.99S                  
BAR HARBOR     FAIR      69  65  86 SW10      30.01S                  
WISCASSET      FAIR      68  66  93 CALM      30.00S                  
ROCKLAND       FAIR      67  65  93 S5        29.99F                  
FRYEBURG       FAIR      63  59  87 CALM      29.99F                  
LEWISTONAUBURN FAIR      65  62  90 CALM      29.99S                  
AUGUSTA        FAIR      65  63  93 SE5       29.99F                  
WATERVILLE     PTSUNNY   63  62  97 CALM      29.97S FOG              
BANGOR         CLOUDY    66  63  90 S10       29.99F                  
GREENVILLE     NOT AVBL                                               
MILLINOCKET    FAIR      67  60  78 VRB3      29.99S                  
HOULTON        FAIR      69  59  70 S7        29.96F                  
PRESQUE ISLE   FAIR      67  58  72 SE6       29.97F                  
FRENCHVILLE    FAIR      65  56  72 S8        29.93F                  
CARIBOU        FAIR      68  58  70 S6        29.95F                  
$$

NHZ002-005-008-009-011-012-014-211400-
NEW HAMPSHIRE
  
CITY           SKY/WX    TMP DP  RH WIND       PRES   REMARKS
PORTSMOUTH     CLOUDY    71  65  81 CALM      29.98S                  
ROCHESTER      NOT AVBL                                               
NASHUA         LGT RAIN  68  68 100 CALM      30.01S                  
MANCHESTER     LGT RAIN  68  63  84 CALM      29.99S                  
CONCORD        LGT RAIN  62  61  96 S3        30.00F                  
LACONIA        FAIR      64  61  90 W6        30.00F                  
PLYMOUTH       RAIN      57  56  97 CALM      30.00F                  
BERLIN         NOT AVBL                                               
WHITEFIELD     FAIR      58  54  86 CALM      29.98F                  
JAFFREY        FAIR      67  64  90 CALM      30.03F                  
KEENE          LGT RAIN  62  61  96 CALM      30.02F                  
LEBANON        LGT RAIN  62  58  86 SE3       29.98S FOG              
MT WASHINGTON  PTSUNNY   52  50  93 W30         N/A                   
$$

VTZ005-007-008-211400-
VERMONT
  
CITY           SKY/WX    TMP DP  RH WIND       PRES   REMARKS
ST JOHNSBURY     N/A     59  56  89 MISG      29.96F                  
MONTPELIER     FAIR      60  57  89 E3        30.00F                  
BURLINGTON     FAIR      76  63  64 S16G26    29.90F                  
$$

MAZ007-012-024-CTZ003-RIZ002-NYZ038-NYZ072-211400-
SOUTHERN NEW ENGLAND AND NY
  
CITY           SKY/WX    TMP DP  RH WIND       PRES   REMARKS
BOSTON         CLOUDY    80  70  71 S8        29.99F                  
WORCESTER      PTSUNNY   72  68  87 S7        30.03F                  
NANTUCKET      FAIR      74  72  93 SE9       30.04S                  
PROVIDENCE     FOG       73  73 100 VRB3      30.01F VSB 1            
HARTFORD       CLOUDY    74  69  85 S7        29.99F                  
ALBANY         CLOUDY    73  68  84 SE5       29.95F                  
NEW YORK CITY  PTSUNNY   80  72  76 S6        29.96F                  
$$

ANZ081-ANZ082-ANZ150-NHZ014-MEZ023>029-211400-
COASTAL MARINE OBSERVATIONS
  
STATION/POSITION TIME  TEMP    WIND        PRES    WAVE
                       AIR SEA DIR/SP/G            HT/PER
                 (UTC) (F)     (DEG/KT/KT) (MB)    (FT/S)
MATINICUS ROCK   1250   62                 1015.5S
ISLE OF SHOALS   1200   68     210/ 11/ 11 1015.1R
JEFFREYS LEDGE   1238      66                N/A     2/10
CASHES LEDGE BUO 1250   65 63  180/  8/ 10 1016.6S   2/ 9
GEORGES BANK BUO 1250   69 68  100/  4/  4 1019.0S   2/11
$$

.............KEY..............
   WCI - WIND CHILL
   TC  - TEMPERATURE IN CELSIUS
   VSB - VISIBILITY IN MILES
   HX  - HEAT INDEX
   FAIR- INDICATES FEW OR NO CLOUDS BELOW 12,000 FT, WITH NO 
         SIGNIFICANT WEATHER AND/OR OBSTRUCTIONS TO VISIBILITY.